Weather History for Plainview, TX

Change the Weather History Date:

Thursday, November 7, 2013

  Actual Average Record
Temperature  
Mean Temperature 46 °F -  
Max Temperature 62 °F 63 °F 85 °F (1934)
Min Temperature 30 °F 38 °F 18 °F (1938)
Degree Days  
Heating Degree Days 19    
Moisture  
Dew Point 23 °F    
Average Humidity 46    
Maximum Humidity 76    
Minimum Humidity 19    
Precipitation  
Precipitation 0.00 in - - ()
Sea Level Pressure  
Sea Level Pressure 30.39 in    
Wind  
Wind Speed 6 mph (SSW)    
Max Wind Speed 16 mph    
Max Gust Speed 17 mph    
Visibility 10 miles    
Events      
Averages and records for this station are not official NWS values.
T = Trace of Precipitation, MM = Missing Value Source: NWS Daily Summary

Daily Weather History Graph

Daily Weather History Graph

Search for Another Location

Airport:

Trip Planner

Search our weather history database for the weather conditions in past years. The results will help you decide how hot, cold, wet, or windy it might be!

Date:

Astronomy

Nov. 07, 2013 Rise Set
Actual Time 7:12 AM CST 5:48 PM CST
Civil Twilight 6:46 AM CST 6:14 PM CST
Nautical Twilight 6:16 AM CST 6:44 PM CST
Astronomical Twilight 5:46 AM CST 7:13 PM CST
Moon 11:20 AM CST (11/7) 10:03 PM CST (11/7)
Length of Visible Light 11h 28m
Length of Day
10h 35m
Waxing Crescent, 23% of the Moon is Illuminated
Nov 7
Waxing Crescent
Nov 9
First Quarter
Nov 17
Full
Nov 25
Last Quarter
Dec 2
New

Hourly Weather History & Observations

Time (CST) Temp. Windchill Dew Point Humidity Pressure Visibility Wind Dir Wind Speed Gust Speed Precip Events Conditions
12:15 AM 36.0 °F 33.3 °F 22.6 °F 58% 30.36 in 10.0 mi SSW 3.5 mph - N/A   Clear
12:35 AM 34.7 °F 31.8 °F 22.1 °F 60% 30.37 in 10.0 mi SSW 3.5 mph - N/A   Clear
12:55 AM 34.7 °F 31.8 °F 22.8 °F 62% 30.37 in 10.0 mi SW 3.5 mph - N/A   Clear
1:15 AM 32.2 °F - 22.5 °F 67% 30.38 in 10.0 mi Calm Calm - N/A   Clear
1:55 AM 32.2 °F 26.7 °F 23.9 °F 72% 30.37 in 10.0 mi WSW 5.8 mph - N/A   Clear
2:15 AM 31.8 °F 27.3 °F 24.6 °F 75% 30.38 in 10.0 mi West 4.6 mph - N/A   Clear
2:35 AM 32.0 °F 27.5 °F 25.2 °F 76% 30.38 in 10.0 mi West 4.6 mph - N/A   Clear
2:55 AM 32.2 °F 27.7 °F 25.2 °F 75% 30.38 in 10.0 mi WSW 4.6 mph - N/A   Clear
3:15 AM 32.9 °F 29.8 °F 24.3 °F 71% 30.38 in 10.0 mi SW 3.5 mph - N/A   Clear
3:35 AM 30.0 °F 26.5 °F 22.1 °F 72% 30.38 in 10.0 mi WSW 3.5 mph - N/A   Clear
3:55 AM 32.2 °F 27.7 °F 23.4 °F 70% 30.39 in 10.0 mi SW 4.6 mph - N/A   Clear
4:15 AM 31.6 °F 27.0 °F 22.6 °F 69% 30.39 in 10.0 mi SW 4.6 mph - N/A   Clear
4:35 AM 30.0 °F 25.2 °F 21.4 °F 70% 30.39 in 10.0 mi WSW 4.6 mph - N/A   Clear
4:55 AM 30.0 °F 26.5 °F 21.0 °F 69% 30.39 in 10.0 mi SSW 3.5 mph - N/A   Clear
5:15 AM 31.1 °F 26.4 °F 21.4 °F 67% 30.40 in 10.0 mi SSW 4.6 mph - N/A   Clear
5:35 AM 32.7 °F 28.3 °F 22.1 °F 65% 30.41 in 10.0 mi SSW 4.6 mph - N/A   Clear
5:55 AM 32.2 °F 28.9 °F 21.9 °F 66% 30.41 in 10.0 mi South 3.5 mph - N/A   Clear
6:15 AM 32.0 °F 27.5 °F 22.5 °F 68% 30.42 in 10.0 mi South 4.6 mph - N/A   Clear
6:35 AM 30.0 °F 26.5 °F 21.2 °F 70% 30.43 in 10.0 mi South 3.5 mph - N/A   Clear
6:55 AM 30.2 °F 26.7 °F 21.4 °F 70% 30.44 in 10.0 mi SSW 3.5 mph - N/A   Clear
7:15 AM 31.3 °F - 21.9 °F 68% 30.44 in 10.0 mi Calm Calm - N/A   Clear
7:35 AM 30.4 °F - 21.7 °F 70% 30.45 in 10.0 mi Calm Calm - N/A   Clear
7:55 AM 31.5 °F - 23.7 °F 73% 30.46 in 10.0 mi Calm Calm - N/A   Clear
8:15 AM - - - N/A% - - North - - N/A   Unknown
8:35 AM 37.6 °F 35.1 °F 25.9 °F 63% 30.46 in 10.0 mi SSW 3.5 mph - N/A   Clear
8:55 AM 40.3 °F 36.3 °F 26.8 °F 59% 30.47 in 10.0 mi SSW 5.8 mph - N/A   Clear
9:15 AM 43.7 °F 40.3 °F 25.5 °F 49% 30.47 in 10.0 mi SSW 5.8 mph - N/A   Clear
9:35 AM 48.9 °F - 27.3 °F 43% 30.47 in 10.0 mi South 6.9 mph - N/A   Clear
9:55 AM 50.0 °F - 24.4 °F 37% 30.47 in 10.0 mi SW 9.2 mph - N/A   Clear
10:15 AM 50.0 °F - 23.7 °F 36% 30.47 in 10.0 mi SSW 8.1 mph - N/A   Clear
10:35 AM 53.8 °F - 24.8 °F 33% 30.47 in 10.0 mi SSW 9.2 mph - N/A   Clear
10:55 AM 54.9 °F - 24.3 °F 31% 30.47 in 10.0 mi SSW 9.2 mph - N/A   Clear
11:15 AM 54.9 °F - 23.9 °F 30% 30.47 in 10.0 mi SSW 9.2 mph - N/A   Clear
11:35 AM 57.2 °F - 25.2 °F 29% 30.47 in 10.0 mi SSW 8.1 mph - N/A   Clear
11:55 AM 57.4 °F - 23.9 °F 28% 30.46 in 10.0 mi SW 8.1 mph - N/A   Clear
12:15 PM 57.6 °F - 23.7 °F 27% 30.46 in 10.0 mi SSW 9.2 mph - N/A   Clear
12:35 PM 59.9 °F - 24.8 °F 26% 30.43 in 10.0 mi SSW 8.1 mph - N/A   Clear
12:55 PM 60.1 °F - 23.5 °F 25% 30.42 in 10.0 mi SSW 10.4 mph 16.1 mph N/A   Clear
1:15 PM 61.2 °F - 21.9 °F 22% 30.41 in 10.0 mi South 9.2 mph - N/A   Clear
1:35 PM 61.2 °F - 21.0 °F 21% 30.39 in 10.0 mi SSW 11.5 mph 17.3 mph N/A   Clear
1:55 PM 61.2 °F - 21.0 °F 21% 30.38 in 10.0 mi SSW 10.4 mph - N/A   Clear
2:15 PM 62.6 °F - 20.7 °F 20% 30.37 in 10.0 mi South 12.7 mph - N/A   Clear
2:35 PM 61.2 °F - 18.9 °F 20% 30.37 in 10.0 mi South 13.8 mph 17.3 mph N/A   Clear
2:55 PM 61.3 °F - 19.4 °F 20% 30.36 in 10.0 mi South 16.1 mph - N/A   Clear
3:15 PM 62.4 °F - 19.6 °F 19% 30.35 in 10.0 mi SSW 11.5 mph 17.3 mph N/A   Clear
3:35 PM 61.3 °F - 19.2 °F 20% 30.35 in 10.0 mi SSW 11.5 mph - N/A   Clear
3:55 PM 61.9 °F - 19.4 °F 19% 30.35 in 10.0 mi SSW 11.5 mph - N/A   Clear
4:35 PM 60.3 °F - 19.4 °F 21% 30.35 in 10.0 mi South 11.5 mph - N/A   Clear
4:55 PM 59.9 °F - 20.3 °F 22% 30.35 in 10.0 mi South 12.7 mph - N/A   Clear
5:15 PM 57.4 °F - 20.1 °F 24% 30.35 in 10.0 mi South 11.5 mph - N/A   Clear
5:35 PM 57.4 °F - 21.2 °F 25% 30.35 in 10.0 mi South 6.9 mph - N/A   Clear
5:55 PM 54.9 °F - 21.9 °F 28% 30.35 in 10.0 mi South 8.1 mph - N/A   Clear
6:15 PM 52.7 °F - 21.4 °F 29% 30.36 in 10.0 mi South 9.2 mph - N/A   Clear
6:35 PM 50.0 °F - 20.5 °F 31% 30.35 in 10.0 mi South 8.1 mph - N/A   Clear
6:55 PM 50.0 °F - 21.4 °F 32% 30.36 in 10.0 mi South 9.2 mph - N/A   Clear
7:15 PM 50.0 °F - 22.6 °F 34% 30.35 in 10.0 mi South 8.1 mph - N/A   Clear
7:35 PM 47.5 °F - 21.4 °F 36% 30.35 in 10.0 mi South 9.2 mph - N/A   Clear
7:55 PM 47.3 °F - 22.6 °F 38% 30.35 in 10.0 mi South 8.1 mph - N/A   Clear
8:15 PM 43.9 °F 39.9 °F 21.0 °F 40% 30.35 in 10.0 mi South 6.9 mph - N/A   Clear
8:35 PM 42.8 °F 38.6 °F 21.2 °F 42% 30.35 in 10.0 mi SSW 6.9 mph - N/A   Clear
8:55 PM 41.5 °F 37.1 °F 21.9 °F 46% 30.35 in 10.0 mi SSW 6.9 mph - N/A   Clear
9:15 PM 42.3 °F 38.6 °F 22.6 °F 46% 30.35 in 10.0 mi SSW 5.8 mph - N/A   Clear
9:35 PM 41.0 °F 38.0 °F 22.1 °F 47% 30.35 in 10.0 mi SSW 4.6 mph - N/A   Clear
9:55 PM 41.0 °F 37.1 °F 22.6 °F 48% 30.35 in 10.0 mi South 5.8 mph - N/A   Clear
10:15 PM 40.8 °F 36.2 °F 22.8 °F 49% 30.34 in 10.0 mi SSW 6.9 mph - N/A   Clear
10:35 PM 39.7 °F 35.6 °F 22.8 °F 51% 30.34 in 10.0 mi SSW 5.8 mph - N/A   Clear
10:55 PM 39.7 °F 35.6 °F 23.0 °F 51% 30.34 in 10.0 mi SSW 5.8 mph - N/A   Clear
11:15 PM 39.7 °F 34.9 °F 23.4 °F 52% 30.33 in 10.0 mi SSW 6.9 mph - N/A   Clear
11:35 PM 39.7 °F 34.9 °F 23.4 °F 52% 30.32 in 10.0 mi SSW 6.9 mph - N/A   Clear
11:55 PM 39.7 °F 34.9 °F 23.5 °F 52% 30.31 in 10.0 mi SSW 6.9 mph - N/A   Clear